sat.trackr.live / text

‹ back to catalog

STARLINK-36588

NORAD 67573 · 2026-016N

PAYLOAD ACTIVE UNKNOWN

§ Identity

Operator
Country
US
Launch date
2026-01-25
Launch site
AFWTR
Launch vehicle
Mass (kg)
RCS (m²)

Purposes: comms

External: N2YO · Heavens-Above · Gunter

§ Orbital elements

Epoch: 2026-05-25T02:24:07.058016Z

Period
93.91 min
Inclination
97.2858°
Eccentricity
0.0001211
Mean motion
15.33455737 rev/d
Perigee alt
464.7 km
Apogee alt
466.3 km
Semi-major
6,843.6 km
B*
4.8495e-4
RAAN
205.4223°
Arg perigee
88.5664°
Mean anomaly
271.5718°
Rev number
1,857

§ Raw data

STARLINK-365881 67573U 26016N   26145.10008169  .00015619  00000+0  48495-3 0  99902 67573  97.2858 205.4223 0001211  88.5664 271.5718 15.33455737 18574

JSON: /api/v1/satellites/67573 · /tle

For live sub-satellite position, see the globe view (requires WebGL).

§ Visibility from observer

Set your observer location to see the next 7 days of passes ≥ 10°. The values pass through the URL so the page stays shareable.

No JS? Fill the form by hand. The geolocation button needs JavaScript.